Regional Weather Roundup
Issued by NWS Newport/Morehead, NC

Current Version | Previous Version | Text Only | Print | Product List | Glossary On
Versions: 1 2 3 4 5 6 7 8 9 10 11 12 13 14 15 16 17 18 19 20 21 22 23 24 25 26 27 28 29 30 31 32 33 34 35 36 37 38 39 40 41 42 43 44 45 46 47 48 49 50
000
ASUS42 KMHX 031313
RWRMHX
WEATHER ROUNDUP FOR EASTERN NORTH CAROLINA
NATIONAL WEATHER SERVICE NEWPORT/MOREHEAD CITY NC
900 AM EDT FRI JUL 03 2015

NOTE: "FAIR" INDICATES FEW OR NO CLOUDS BELOW 12,000 FEET
WITH NO SIGNIFICANT WEATHER AND/OR OBSTRUCTIONS TO VISIBILITY

NCZ015>017-031-032-045>047-102-103-031400-
NORTH COAST

CITY           SKY/WX    TMP DP  RH WIND       PRES   REMARKS
EDENTON        MOSUNNY   73  70  89 NE5       29.98S FOG
ELIZABETH CITY MOSUNNY   76  69  79 NE6       29.98R
KITTY HAWK     PTSUNNY   74  72  95 N3        29.96R
MANTEO         CLOUDY    73  72  97 CALM      29.98R FOG

$$

NCZ045>047-081-094-103-104-031400-
CENTRAL COAST

CITY           SKY/WX    TMP DP  RH WIND       PRES   REMARKS
FRISCO         PTSUNNY   77  69  76 W10       29.98S
SWANQUARTER      N/A     75 N/A N/A W6G12     29.94S

$$

NCZ095-097-098-100-101-031400-
SOUTHERN COAST

CITY           SKY/WX    TMP DP  RH WIND       PRES   REMARKS
BEAUFORT       PTSUNNY   77  70  79 W15       29.99S
CEDAR ISLAND     N/A     77 N/A N/A S9        30.03S
JACKSONVILLE   CLOUDY    73  68  83 SW9       30.00R
PINEY ISLAND   CLOUDY   N/A N/A N/A W10       29.99R
WILMINGTON     LGT RAIN  75  70  84 W9        30.01R


$$

NCZ011>013-027>030-043-044-078>080-089-090>093-098-031400-
COASTAL PLAIN

CITY           SKY/WX    TMP DP  RH WIND       PRES   REMARKS
AHOSKIE        MOSUNNY   73  67  81 NE6       30.00R
CLINTON        CLOUDY    73  70  91 S5        29.99F
ELIZABETHTOWN  LGT RAIN  71  71 100 S3        29.99S
GOLDSBORO      CLOUDY    74  70  89 S3        29.97R
GREENVILLE     CLOUDY    73  72  94 SW5       30.00S
HAVELOCK       CLOUDY    75  68  78 W9        30.01R
KENANSVILLE    CLOUDY    73  67  84 CALM      30.02R
KINSTON        CLOUDY    75  70  83 SW5       30.00R
NEW BERN       PTSUNNY   76  68  76 VRB6      30.00S
RICHLANDS      CLOUDY    73  64  73 SW8       30.01R
ROCKY MOUNT    CLOUDY    74  70  87 E5        29.98R FOG
WASHINGTON     CLOUDY    73  70  91 SW5       29.99R
WHITEVILLE     CLOUDY    73  70  92 SW6       30.00R

$$

AMZ130-135-150-152-154-156-158-170-250-252-270-ANZ085-086-088-633-658-670-031400-
MARINE OBSERVATIONS

STATION/POSITION TIME  TEMP    WIND        PRES    WAVE   SWELL
                       AIR SEA DIR/SP/G            HT/PER HT/PER
                 (UTC) (F)     (DEG/KT/KT) (MB)    (FT/S) (FT/S)
CHESAPEAKE LIGHT 1300   73      60/  8/  9 1016.0
64 E VA BEACH    1250   74 77   40/ 10/ 12 1014.3    5/ 7   5/ 7
DUCK             1200   73 70   20/  7/  7 1013.7
2 E DUCK         1211      71                N/A     2/ 8
OREGON INLET     1200   75 81  270/  8/ 10 1014.6
13E OREGON INLT  1300      73                N/A     4/ 8
HATTERAS CG      1200   76 78  230/ 10/ 14 1014.7
DIAMOND BUOY     1250   77 83  270/ 14/ 17 1014.9    6/ 7   3/ 7
CAPE LOOKOUT     1300   78     270/ 16/ 19 1015.3
BEAUFORT LAB     1200   76 80  250/  5/ 10 1014.8
30 SE NEW RVR IN 1208   79 80  260/ 16/ 21 1015.9
27 SE WRIGHTSVLE 1200      80  260/ 14/ 16   N/A
5 SE WRIGHTSVLE  1208   76 79  270/  6/ 12 1015.8
225 S CAPE HAT   1250   82 80  240/ 16/ 17 1018.9    6/ 6   3/ 8
41 SE CHARLESTON 1250   80 81  240/ 19/ 23 1016.4    5/ 5   2/14

$$


USA.gov is the U.S. government's official web portal to all federal, state and local government web resources and services.